User: anonymous   Login
Location: ???????
(55.2903°N, 39.1554°E)
Time: 14:02:47
(UTC+00:00)
Language:

Cosmos 2322 Rocket - Orbit

View from above orbital plane
View from above orbital plane
View from above satellite
View from above satellite

Ground track
Ground track

The orbit data is extracted from the following two-line orbital elements,

1 23705U 95058B   24175.89142956  .00000207  00000-0  13051-3 0  9999
2 23705  71.0226  49.7794 0013126 341.4177  18.6464 14.15349911479880
Epoch (UTC): 23 June 2024 21:23:39
Eccentricity: 0.0013126
inclination: 71.0226°
perigee height: 831 km
apogee height: 850 km
right ascension of ascending node: 49.7794°
argument of perigee: 341.4177°
revolutions per day: 14.15349911
mean anomaly at epoch: 18.6464°
orbit number at epoch: 47988

The dashed part of the orbit path shows where the satellite is in the earth's shadow,  

DLR